User: anonymous   Login
Location: Caltech
(34.1382°N, 118.1253°W)
Time: 14:41:58
(UTC-07:00)
Language:

Iridium 14 - Orbit

View from above orbital plane
View from above orbital plane
View from above satellite
View from above satellite

Ground track
Ground track

The orbit data is extracted from the following two-line orbital elements,

1 25777U 99032A   15115.17343078  .00000614  00000-0  21203-3 0  9999
2 25777 086.4012 191.6489 0002418 091.4334 330.5557 14.34215836842300
Epoch (UTC): 25 April 2015 04:09:44
Eccentricity: 0.0002418
inclination: 86.4012°
perigee height: 776 km
apogee height: 779 km
right ascension of ascending node: 191.6489°
argument of perigee: 91.4334°
revolutions per day: 14.34215836
mean anomaly at epoch: 330.5557°
orbit number at epoch: 84230

The dashed part of the orbit path shows where the satellite is in the earth's shadow,  

DLR